SITRO-AIS 11 (SHEFFER)

Last updated on Sat Aug 30 2025 00:03:48 GMT+0000 (Coordinated Universal Time)

1 57208U 23091AU 25241.26424873 .00017983 00000+0 69187-3 0 9998 2 57208 97.5522 302.1477 0008913 33.7479 326.4325 15.26413732120071
UTC large
Height (km)
Speed (km/s)
/
Latitude / Longitude
Inclination (degrees)
Orbital Period (minutes)
Azimuth
Elevation
Range (km)
Doppler Factor

Next 0 passes for location: London (51.5072 / 0.1276)

Sorry there are no passes over London.